Weather History for KDLH - December, 2011

Change the Weather History Date:

Tuesday, December 13, 2011

  Actual Average Record
Temperature  
Mean Temperature 32 °F 15 °F  
Max Temperature 34 °F 23 °F 52 °F (1913)
Min Temperature 30 °F 8 °F -23 °F (1903)
Degree Days  
Heating Degree Days 33 50  
Month to date heating degree days 587 616  
Since 1 July heating degree days 2389 2829  
Cooling Degree Days 0 0  
Month to date cooling degree days 0 0  
Year to date cooling degree days 314 204  
Moisture  
Dew Point 30 °F    
Average Humidity 91    
Maximum Humidity 96    
Minimum Humidity 85    
Precipitation  
Precipitation T in 0.03 in 0.78 in (1995)
Month to date precipitation 0.06 0.55  
Year to date precipitation 25.57 30.30  
Snow  
Snow 0.00 in 0.60 in 11.80 in (1995)
Month to date snowfall 0.6 7.1  
Since 1 July snowfall 4.3 23.2  
Snow Depth T in    
Sea Level Pressure  
Sea Level Pressure 30.31 in    
Wind  
Wind Speed 9 mph (ESE)    
Max Wind Speed 14 mph    
Max Gust Speed 17 mph    
T = Trace of Precipitation, MM = Missing Value Source: NWS Daily Summary

Daily Weather History Graph

Daily Weather History Graph

Search for Another Location

Airport or City:

Trip Planner

Search our weather history database for the weather conditions in past years. The results will help you decide how hot, cold, wet, or windy it might be!

Date:

Astronomy

Dec. 13, 2011 Rise Set
Actual Time 7:45 AM CST 4:20 PM CST
Civil Twilight 7:10 AM CST 4:55 PM CST
Nautical Twilight 6:31 AM CST 5:34 PM CST
Astronomical Twilight 5:54 AM CST 6:11 PM CST
Moon 7:43 PM CST (12/13) 9:49 AM CST (12/13)
Length of Visible Light 9h 45m
Length of Day
8h 34m
Waning Gibbous, 90% of the Moon is Illuminated
Dec 13
Waning Gibbous
Dec 17
Last Quarter
Dec 24
New
Jan 1
First Quarter
Jan 9
Full

Hourly Weather History & Observations

Time (CST) Temp. Windchill Dew Point Humidity Pressure Visibility Wind Dir Wind Speed Gust Speed Precip Events Conditions
12:55 AM 32.0 °F 22.5 °F 28.9 °F 88% 30.37 in 0.8 mi East 12.7 mph - 0.00 in   Light Freezing Drizzle
1:55 AM 30.9 °F 22.2 °F 28.0 °F 89% 30.37 in 0.8 mi East 10.4 mph - 0.00 in   Light Freezing Drizzle
2:55 AM 30.9 °F 23.5 °F 28.0 °F 89% 30.39 in 0.8 mi East 8.1 mph - 0.00 in   Light Freezing Drizzle
3:55 AM 30.9 °F 24.3 °F 28.0 °F 89% 30.39 in 0.8 mi East 6.9 mph - 0.00 in   Light Freezing Drizzle
4:55 AM 30.0 °F 22.4 °F 28.0 °F 92% 30.38 in 0.8 mi East 8.1 mph - 0.00 in   Light Freezing Drizzle
5:50 AM 30.2 °F 21.9 °F 28.4 °F 93% 30.32 in 2.0 mi East 9.2 mph - N/A   Light Freezing Drizzle
5:55 AM 30.0 °F 22.4 °F 28.0 °F 92% 30.38 in 2.0 mi East 8.1 mph - 0.00 in   Light Freezing Drizzle
6:19 AM 30.2 °F 22.6 °F 28.4 °F 93% 30.32 in 2.0 mi East 8.1 mph - 0.00 in   Overcast
6:55 AM 30.0 °F 24.1 °F 28.0 °F 92% 30.39 in 1.8 mi East 5.8 mph - 0.00 in   Overcast
7:42 AM 30.2 °F 22.6 °F 28.4 °F 93% 30.32 in 0.8 mi East 8.1 mph - N/A   Overcast
7:55 AM 30.0 °F 21.7 °F 28.0 °F 92% 30.38 in 0.5 mi East 9.2 mph - N/A Fog Light Freezing Fog
8:07 AM 30.2 °F 21.9 °F 28.4 °F 93% 30.32 in 0.2 mi East 9.2 mph - N/A Fog Light Freezing Fog
8:36 AM 30.2 °F 20.8 °F 28.4 °F 93% 30.32 in 0.2 mi East 11.5 mph - N/A Fog Light Freezing Fog
8:55 AM 30.9 °F 22.8 °F 28.9 °F 92% 30.38 in 0.1 mi ESE 9.2 mph - N/A Fog Light Freezing Fog
9:55 AM 32.0 °F 23.6 °F 28.9 °F 88% 30.39 in 0.1 mi East 10.4 mph - N/A Fog Fog
10:55 AM 32.0 °F 23.0 °F 30.0 °F 92% 30.37 in 0.1 mi East 11.5 mph - N/A Fog Fog
11:55 AM 32.0 °F 23.0 °F 30.0 °F 92% 30.37 in 0.1 mi ESE 11.5 mph - N/A Fog Fog
12:55 PM 32.0 °F 22.5 °F 30.0 °F 92% 30.35 in 0.1 mi East 12.7 mph - N/A Fog Fog
1:55 PM 32.0 °F 24.2 °F 30.0 °F 92% 30.32 in 0.1 mi East 9.2 mph - N/A Fog Fog
2:17 PM 32.0 °F 23.6 °F 30.2 °F 93% 30.24 in 0.1 mi ESE 10.4 mph - N/A Fog Fog
2:55 PM 32.0 °F 23.6 °F 30.0 °F 92% 30.30 in 0.1 mi East 10.4 mph - N/A Fog Fog
3:10 PM 32.0 °F 24.2 °F 30.2 °F 93% 30.24 in 0.1 mi ESE 9.2 mph - N/A Fog Fog
3:55 PM 33.1 °F 26.9 °F 30.9 °F 92% 30.29 in 0.1 mi ESE 6.9 mph - N/A Fog Fog
4:55 PM 33.1 °F 26.1 °F 30.9 °F 92% 30.28 in 0.1 mi ESE 8.1 mph - N/A Fog Fog
5:55 PM 33.1 °F 26.1 °F 30.9 °F 92% 30.28 in 0.1 mi ESE 8.1 mph - N/A Fog Fog
6:55 PM 33.1 °F 26.1 °F 30.9 °F 92% 30.26 in 0.1 mi East 8.1 mph - N/A Fog Fog
7:55 PM 33.1 °F 26.1 °F 30.9 °F 92% 30.23 in 0.1 mi East 8.1 mph - N/A Fog Fog
8:55 PM 33.1 °F 25.5 °F 30.9 °F 92% 30.22 in 0.1 mi East 9.2 mph - N/A Fog Fog
9:55 PM 33.1 °F 26.1 °F 32.0 °F 96% 30.19 in 0.1 mi ESE 8.1 mph - N/A Fog Fog
10:55 PM 33.1 °F 27.7 °F 32.0 °F 96% 30.18 in 0.1 mi SE 5.8 mph - N/A Fog Fog
11:55 PM 34.0 °F 27.2 °F 32.0 °F 92% 30.16 in 0.1 mi SE 8.1 mph - N/A Fog Fog